Year,Month,Day,Hour,Minute,Value (Times are PST for temperature in C)
2015,07,19,00,00,21.60
2015,07,19,00,01,21.60
2015,07,19,00,02,21.60
2015,07,19,00,03,21.60
2015,07,19,00,04,21.60
2015,07,19,00,05,21.60
2015,07,19,00,06,21.60
2015,07,19,00,07,21.50
2015,07,19,00,08,21.40
2015,07,19,00,09,21.40
2015,07,19,00,10,21.40
2015,07,19,00,11,21.40
2015,07,19,00,12,21.40
2015,07,19,00,13,21.40
2015,07,19,00,14,21.30
2015,07,19,00,15,21.30
2015,07,19,00,16,21.30
2015,07,19,00,17,21.30
2015,07,19,00,18,21.30
2015,07,19,00,19,21.30
2015,07,19,00,20,21.30
2015,07,19,00,21,21.30
2015,07,19,00,22,21.30
2015,07,19,00,23,21.30
2015,07,19,00,24,21.30
2015,07,19,00,25,21.30
2015,07,19,00,26,21.30
2015,07,19,00,27,21.30
2015,07,19,00,28,21.30
2015,07,19,00,29,21.30
2015,07,19,00,30,21.30
2015,07,19,00,31,21.20
2015,07,19,00,32,21.20
2015,07,19,00,33,21.20
2015,07,19,00,34,21.20
2015,07,19,00,35,21.10
2015,07,19,00,36,21.10
2015,07,19,00,37,21.10
2015,07,19,00,38,21.10
2015,07,19,00,39,21.00
2015,07,19,00,40,21.00
2015,07,19,00,41,21.00
2015,07,19,00,42,21.00
2015,07,19,00,43,20.90
2015,07,19,00,44,20.90
2015,07,19,00,45,20.90
2015,07,19,00,46,20.80
2015,07,19,00,47,20.80
2015,07,19,00,48,20.80
2015,07,19,00,49,20.70
2015,07,19,00,50,20.70
2015,07,19,00,51,20.60
2015,07,19,00,52,20.60
2015,07,19,00,53,20.60
2015,07,19,00,54,20.50
2015,07,19,00,55,20.50
2015,07,19,00,56,20.40
2015,07,19,00,57,20.40
2015,07,19,00,58,20.30
2015,07,19,00,59,20.30
2015,07,19,01,00,20.30
2015,07,19,01,01,20.20
2015,07,19,01,02,20.20
2015,07,19,01,03,20.20
2015,07,19,01,04,20.20
2015,07,19,01,05,20.20
2015,07,19,01,06,20.20
2015,07,19,01,07,20.20
2015,07,19,01,08,20.10
2015,07,19,01,09,20.10
2015,07,19,01,10,20.10
2015,07,19,01,11,20.10
2015,07,19,01,12,20.10
2015,07,19,01,13,20.10
2015,07,19,01,14,20.10
2015,07,19,01,15,20.10
2015,07,19,01,16,20.00
2015,07,19,01,17,19.90
2015,07,19,01,18,19.90
2015,07,19,01,19,19.90
2015,07,19,01,20,19.90
2015,07,19,01,21,19.90
2015,07,19,01,22,19.90
2015,07,19,01,23,19.90
2015,07,19,01,24,19.90
2015,07,19,01,25,19.80
2015,07,19,01,26,19.80
2015,07,19,01,27,19.80
2015,07,19,01,28,19.80
2015,07,19,01,29,19.80
2015,07,19,01,30,19.80
2015,07,19,01,31,19.80
2015,07,19,01,32,19.80
2015,07,19,01,33,19.80
2015,07,19,01,34,19.80
2015,07,19,01,35,19.80
2015,07,19,01,36,19.80
2015,07,19,01,37,19.80
2015,07,19,01,38,19.80
2015,07,19,01,39,19.80
2015,07,19,01,40,19.80
2015,07,19,01,41,19.80
2015,07,19,01,42,19.80
2015,07,19,01,43,19.80
2015,07,19,01,44,19.80
2015,07,19,01,45,19.80
2015,07,19,01,46,19.80
2015,07,19,01,47,19.80
2015,07,19,01,48,19.80
2015,07,19,01,49,19.80
2015,07,19,01,50,19.70
2015,07,19,01,51,19.70
2015,07,19,01,52,19.70
2015,07,19,01,53,19.70
2015,07,19,01,54,19.70
2015,07,19,01,55,19.70
2015,07,19,01,56,19.70
2015,07,19,01,57,19.70
2015,07,19,01,58,19.70
2015,07,19,01,59,19.70
2015,07,19,02,00,19.60
2015,07,19,02,01,19.60
2015,07,19,02,02,19.60
2015,07,19,02,03,19.60
2015,07,19,02,04,19.60
2015,07,19,02,05,19.60
2015,07,19,02,06,19.60
2015,07,19,02,07,19.60
2015,07,19,02,08,19.60
2015,07,19,02,09,19.60
2015,07,19,02,10,19.60
2015,07,19,02,11,19.60
2015,07,19,02,12,19.50
2015,07,19,02,13,19.50
2015,07,19,02,14,19.50
2015,07,19,02,15,19.50
2015,07,19,02,16,19.50
2015,07,19,02,17,19.40
2015,07,19,02,18,19.40
2015,07,19,02,19,19.40
2015,07,19,02,20,19.40
2015,07,19,02,21,19.30
2015,07,19,02,22,19.30
2015,07,19,02,23,19.30
2015,07,19,02,24,19.30
2015,07,19,02,25,19.20
2015,07,19,02,26,19.20
2015,07,19,02,27,19.20
2015,07,19,02,28,19.20
2015,07,19,02,29,19.10
2015,07,19,02,30,19.10
2015,07,19,02,31,19.10
2015,07,19,02,32,19.10
2015,07,19,02,33,19.10
2015,07,19,02,34,19.10
2015,07,19,02,35,19.10
2015,07,19,02,36,19.00
2015,07,19,02,37,18.90
2015,07,19,02,38,18.90
2015,07,19,02,39,18.90
2015,07,19,02,40,18.90
2015,07,19,02,41,18.90
2015,07,19,02,42,18.90
2015,07,19,02,43,18.90
2015,07,19,02,44,18.90
2015,07,19,02,45,18.90
2015,07,19,02,46,18.90
2015,07,19,02,47,18.90
2015,07,19,02,48,18.90
2015,07,19,02,49,18.90
2015,07,19,02,50,18.80
2015,07,19,02,51,18.80
2015,07,19,02,52,18.80
2015,07,19,02,53,18.80
2015,07,19,02,54,18.80
2015,07,19,02,55,18.70
2015,07,19,02,56,18.70
2015,07,19,02,57,18.70
2015,07,19,02,58,18.70
2015,07,19,02,59,18.70
2015,07,19,03,00,18.70
2015,07,19,03,01,18.70
2015,07,19,03,02,18.60
2015,07,19,03,03,18.60
2015,07,19,03,04,18.60
2015,07,19,03,05,18.60
2015,07,19,03,06,18.60
2015,07,19,03,07,18.60
2015,07,19,03,08,18.60
2015,07,19,03,09,18.60
2015,07,19,03,10,18.60
2015,07,19,03,11,18.50
2015,07,19,03,12,18.50
2015,07,19,03,13,18.50
2015,07,19,03,14,18.50
2015,07,19,03,15,18.50
2015,07,19,03,16,18.50
2015,07,19,03,17,18.40
2015,07,19,03,18,18.40
2015,07,19,03,19,18.40
2015,07,19,03,20,18.40
2015,07,19,03,21,18.40
2015,07,19,03,22,18.30
2015,07,19,03,23,18.30
2015,07,19,03,24,18.30
2015,07,19,03,25,18.30
2015,07,19,03,26,18.30
2015,07,19,03,27,18.30
2015,07,19,03,28,18.30
2015,07,19,03,29,18.20
2015,07,19,03,30,18.20
2015,07,19,03,31,18.20
2015,07,19,03,32,18.20
2015,07,19,03,33,18.20
2015,07,19,03,34,18.20
2015,07,19,03,35,18.20
2015,07,19,03,36,18.20
2015,07,19,03,37,18.10
2015,07,19,03,38,18.10
2015,07,19,03,39,18.10
2015,07,19,03,40,18.10
2015,07,19,03,41,18.10
2015,07,19,03,42,18.00
2015,07,19,03,43,17.90
2015,07,19,03,44,17.90
2015,07,19,03,45,17.90
2015,07,19,03,46,17.90
2015,07,19,03,47,17.90
2015,07,19,03,48,17.90
2015,07,19,03,49,17.90
2015,07,19,03,50,17.90
2015,07,19,03,51,17.90
2015,07,19,03,52,17.90
2015,07,19,03,53,17.80
2015,07,19,03,54,17.80
2015,07,19,03,55,17.80
2015,07,19,03,56,17.80
2015,07,19,03,57,17.80
2015,07,19,03,58,17.70
2015,07,19,03,59,17.70
2015,07,19,04,00,17.70
2015,07,19,04,01,17.70
2015,07,19,04,02,17.70
2015,07,19,04,03,17.70
2015,07,19,04,04,17.70
2015,07,19,04,05,17.70
2015,07,19,04,06,17.70
2015,07,19,04,07,17.70
2015,07,19,04,08,17.70
2015,07,19,04,09,17.60
2015,07,19,04,10,17.60
2015,07,19,04,11,17.60
2015,07,19,04,12,17.50
2015,07,19,04,13,17.50
2015,07,19,04,14,17.50
2015,07,19,04,15,17.50
2015,07,19,04,16,17.40
2015,07,19,04,17,17.40
2015,07,19,04,18,17.40
2015,07,19,04,19,17.40
2015,07,19,04,20,17.30
2015,07,19,04,21,17.30
2015,07,19,04,22,17.30
2015,07,19,04,23,17.30
2015,07,19,04,24,17.30
2015,07,19,04,25,17.30
2015,07,19,04,26,17.30
2015,07,19,04,27,17.30
2015,07,19,04,28,17.30
2015,07,19,04,29,17.30
2015,07,19,04,30,17.30
2015,07,19,04,31,17.30
2015,07,19,04,32,17.30
2015,07,19,04,33,17.20
2015,07,19,04,34,17.20
2015,07,19,04,35,17.20
2015,07,19,04,36,17.20
2015,07,19,04,37,17.10
2015,07,19,04,38,17.10
2015,07,19,04,39,17.10
2015,07,19,04,40,17.10
2015,07,19,04,41,17.10
2015,07,19,04,42,17.00
2015,07,19,04,43,17.00
2015,07,19,04,44,17.00
2015,07,19,04,45,17.00
2015,07,19,04,46,17.00
2015,07,19,04,47,17.00
2015,07,19,04,48,16.90
2015,07,19,04,49,16.90
2015,07,19,04,50,16.90
2015,07,19,04,51,16.90
2015,07,19,04,52,16.90
2015,07,19,04,53,16.90
2015,07,19,04,54,16.90
2015,07,19,04,55,16.90
2015,07,19,04,56,16.90
2015,07,19,04,57,16.90
2015,07,19,04,58,16.90
2015,07,19,04,59,16.90
2015,07,19,05,00,16.90
2015,07,19,05,01,16.90
2015,07,19,05,02,16.90
2015,07,19,05,03,16.90
2015,07,19,05,04,16.90
2015,07,19,05,05,16.90
2015,07,19,05,06,17.00
2015,07,19,05,07,17.00
2015,07,19,05,08,17.00
2015,07,19,05,09,17.00
2015,07,19,05,10,17.00
2015,07,19,05,11,17.00
2015,07,19,05,12,17.00
2015,07,19,05,13,17.00
2015,07,19,05,14,17.00
2015,07,19,05,15,17.00
2015,07,19,05,16,17.00
2015,07,19,05,17,17.00
2015,07,19,05,18,17.00
2015,07,19,05,19,17.00
2015,07,19,05,20,17.00
2015,07,19,05,21,17.10
2015,07,19,05,22,17.10
2015,07,19,05,23,17.10
2015,07,19,05,24,17.10
2015,07,19,05,25,17.10
2015,07,19,05,26,17.20
2015,07,19,05,27,17.20
2015,07,19,05,28,17.20
2015,07,19,05,29,17.20
2015,07,19,05,30,17.20
2015,07,19,05,31,17.20
2015,07,19,05,32,17.20
2015,07,19,05,33,17.20
2015,07,19,05,34,17.20
2015,07,19,05,35,17.20
2015,07,19,05,36,17.20
2015,07,19,05,37,17.20
2015,07,19,05,38,17.20
2015,07,19,05,39,17.20
2015,07,19,05,40,17.20
2015,07,19,05,41,17.20
2015,07,19,05,42,17.20
2015,07,19,05,43,17.10
2015,07,19,05,44,17.10
2015,07,19,05,45,17.10
2015,07,19,05,46,17.10
2015,07,19,05,47,17.10
2015,07,19,05,48,17.10
2015,07,19,05,49,17.10
2015,07,19,05,50,17.10
2015,07,19,05,51,17.10
2015,07,19,05,52,17.10
2015,07,19,05,53,17.20
2015,07,19,05,54,17.20
2015,07,19,05,55,17.20
2015,07,19,05,56,17.20
2015,07,19,05,57,17.20
2015,07,19,05,58,17.30
2015,07,19,05,59,17.30
2015,07,19,06,00,17.30
2015,07,19,06,01,17.30
2015,07,19,06,02,17.30
2015,07,19,06,03,17.30
2015,07,19,06,04,17.30
2015,07,19,06,05,17.30
2015,07,19,06,06,17.40
2015,07,19,06,07,17.40
2015,07,19,06,08,17.40
2015,07,19,06,09,17.50
2015,07,19,06,10,17.50
2015,07,19,06,11,17.50
2015,07,19,06,12,17.60
2015,07,19,06,13,17.70
2015,07,19,06,14,17.70
2015,07,19,06,15,17.80
2015,07,19,06,16,17.80
2015,07,19,06,17,17.90
2015,07,19,06,18,17.90
2015,07,19,06,19,17.90
2015,07,19,06,20,18.10
2015,07,19,06,21,18.10
2015,07,19,06,22,18.10
2015,07,19,06,23,18.20
2015,07,19,06,24,18.20
2015,07,19,06,25,18.20
2015,07,19,06,26,18.20
2015,07,19,06,27,18.20
2015,07,19,06,28,18.20
2015,07,19,06,29,18.30
2015,07,19,06,30,18.30
2015,07,19,06,31,18.40
2015,07,19,06,32,18.50
2015,07,19,06,33,18.50
2015,07,19,06,34,18.60
2015,07,19,06,35,18.60
2015,07,19,06,36,18.70
2015,07,19,06,37,18.70
2015,07,19,06,38,18.80
2015,07,19,06,39,18.90
2015,07,19,06,40,18.90
2015,07,19,06,41,18.90
2015,07,19,06,42,19.00
2015,07,19,06,43,19.10
2015,07,19,06,44,19.10
2015,07,19,06,45,19.10
2015,07,19,06,46,19.20
2015,07,19,06,47,19.20
2015,07,19,06,48,19.30
2015,07,19,06,49,19.40
2015,07,19,06,50,19.40
2015,07,19,06,51,19.50
2015,07,19,06,52,19.50
2015,07,19,06,53,19.60
2015,07,19,06,54,19.70
2015,07,19,06,55,19.80
2015,07,19,06,56,19.90
2015,07,19,06,57,20.00
2015,07,19,06,58,20.10
2015,07,19,06,59,20.20
2015,07,19,07,00,20.40
2015,07,19,07,01,20.50
2015,07,19,07,02,20.60
2015,07,19,07,03,20.70
2015,07,19,07,04,20.80
2015,07,19,07,05,21.00
2015,07,19,07,06,21.10
2015,07,19,07,07,21.20
2015,07,19,07,08,21.30
2015,07,19,07,09,21.30
2015,07,19,07,10,21.30
2015,07,19,07,11,21.40
2015,07,19,07,12,21.50
2015,07,19,07,13,21.60
2015,07,19,07,14,21.60
2015,07,19,07,15,21.60
2015,07,19,07,16,21.70
2015,07,19,07,17,21.70
2015,07,19,07,18,21.80
2015,07,19,07,19,21.80
2015,07,19,07,20,21.80
2015,07,19,07,21,21.80
2015,07,19,07,22,21.80
2015,07,19,07,23,21.90
2015,07,19,07,24,21.90
2015,07,19,07,25,21.80
2015,07,19,07,26,21.80
2015,07,19,07,27,21.80
2015,07,19,07,28,21.80
2015,07,19,07,29,21.80
2015,07,19,07,30,21.80
2015,07,19,07,31,21.80
2015,07,19,07,32,21.80
2015,07,19,07,33,21.80
2015,07,19,07,34,21.80
2015,07,19,07,35,21.80
2015,07,19,07,36,21.80
2015,07,19,07,37,21.80
2015,07,19,07,38,21.80
2015,07,19,07,39,21.80
2015,07,19,07,40,21.80
2015,07,19,07,41,21.80
2015,07,19,07,42,21.80
2015,07,19,07,43,21.80
2015,07,19,07,44,21.80
2015,07,19,07,45,21.80
2015,07,19,07,46,21.90
2015,07,19,07,47,21.90
2015,07,19,07,48,22.00
2015,07,19,07,49,22.00
2015,07,19,07,50,22.00
2015,07,19,07,51,22.10
2015,07,19,07,52,22.10
2015,07,19,07,53,22.10
2015,07,19,07,54,22.10
2015,07,19,07,55,22.10
2015,07,19,07,56,22.00
2015,07,19,07,57,22.00
2015,07,19,07,58,22.00
2015,07,19,07,59,22.10
2015,07,19,08,00,22.10
2015,07,19,08,01,22.20
2015,07,19,08,02,22.20
2015,07,19,08,03,22.30
2015,07,19,08,04,22.30
2015,07,19,08,05,22.30
2015,07,19,08,06,22.40
2015,07,19,08,07,22.40
2015,07,19,08,08,22.40
2015,07,19,08,09,22.50
2015,07,19,08,10,22.50
2015,07,19,08,11,22.60
2015,07,19,08,12,22.60
2015,07,19,08,13,22.70
2015,07,19,08,14,22.80
2015,07,19,08,15,22.80
2015,07,19,08,16,22.90
2015,07,19,08,17,22.90
2015,07,19,08,18,22.90
2015,07,19,08,19,22.90
2015,07,19,08,20,22.90
2015,07,19,08,21,22.90
2015,07,19,08,22,22.90
2015,07,19,08,23,22.90
2015,07,19,08,24,22.90
2015,07,19,08,25,22.90
2015,07,19,08,26,23.00
2015,07,19,08,27,23.10
2015,07,19,08,28,23.10
2015,07,19,08,29,23.10
2015,07,19,08,30,23.10
2015,07,19,08,31,23.10
2015,07,19,08,32,23.10
2015,07,19,08,33,23.10
2015,07,19,08,34,23.10
2015,07,19,08,35,23.20
2015,07,19,08,36,23.20
2015,07,19,08,37,23.20
2015,07,19,08,38,23.20
2015,07,19,08,39,23.30
2015,07,19,08,40,23.30
2015,07,19,08,41,23.30
2015,07,19,08,42,23.30
2015,07,19,08,43,23.30
2015,07,19,08,44,23.30
2015,07,19,08,45,23.30
2015,07,19,08,46,23.30
2015,07,19,08,47,23.40
2015,07,19,08,48,23.50
2015,07,19,08,49,23.60
2015,07,19,08,50,23.60
2015,07,19,08,51,23.60
2015,07,19,08,52,23.60
2015,07,19,08,53,23.60
2015,07,19,08,54,23.70
2015,07,19,08,55,23.70
2015,07,19,08,56,23.80
2015,07,19,08,57,23.80
2015,07,19,08,58,23.90
2015,07,19,08,59,23.90
2015,07,19,09,00,24.00
2015,07,19,09,01,24.10
2015,07,19,09,02,24.10
2015,07,19,09,03,24.10
2015,07,19,09,04,24.10
2015,07,19,09,05,24.10
2015,07,19,09,06,24.10
2015,07,19,09,07,24.10
2015,07,19,09,08,24.10
2015,07,19,09,09,23.90
2015,07,19,09,10,24.00
2015,07,19,09,11,24.10
2015,07,19,09,12,24.10
2015,07,19,09,13,24.10
2015,07,19,09,14,24.10
2015,07,19,09,15,24.10
2015,07,19,09,16,24.10
2015,07,19,09,17,24.20
2015,07,19,09,18,24.30
2015,07,19,09,19,24.40
2015,07,19,09,20,24.40
2015,07,19,09,21,24.30
2015,07,19,09,22,24.30
2015,07,19,09,23,24.30
2015,07,19,09,24,24.30
2015,07,19,09,25,24.30
2015,07,19,09,26,24.30
2015,07,19,09,27,24.30
2015,07,19,09,28,24.20
2015,07,19,09,29,24.20
2015,07,19,09,30,24.20
2015,07,19,09,31,24.20
2015,07,19,09,32,24.30
2015,07,19,09,33,24.30
2015,07,19,09,34,24.40
2015,07,19,09,35,24.50
2015,07,19,09,36,24.50
2015,07,19,09,37,24.60
2015,07,19,09,38,24.60
2015,07,19,09,39,24.60
2015,07,19,09,40,24.50
2015,07,19,09,41,24.50
2015,07,19,09,42,24.50
2015,07,19,09,43,24.60
2015,07,19,09,44,24.60
2015,07,19,09,45,24.70
2015,07,19,09,46,24.70
2015,07,19,09,47,24.70
2015,07,19,09,48,24.80
2015,07,19,09,49,24.80
2015,07,19,09,50,24.80
2015,07,19,09,51,24.80
2015,07,19,09,52,24.80
2015,07,19,09,53,24.80
2015,07,19,09,54,24.80
2015,07,19,09,55,24.80
2015,07,19,09,56,24.90
2015,07,19,09,57,24.90
2015,07,19,09,58,25.00
2015,07,19,09,59,25.00
2015,07,19,10,00,25.10
2015,07,19,10,01,25.20
2015,07,19,10,02,25.30
2015,07,19,10,03,25.40
2015,07,19,10,04,25.40
2015,07,19,10,05,25.50
2015,07,19,10,06,25.50
2015,07,19,10,07,25.60
2015,07,19,10,08,25.60
2015,07,19,10,09,25.60
2015,07,19,10,10,25.60
2015,07,19,10,11,25.50
2015,07,19,10,12,25.50
2015,07,19,10,13,25.50
2015,07,19,10,14,25.40
2015,07,19,10,15,25.40
2015,07,19,10,16,25.40
2015,07,19,10,17,25.40
2015,07,19,10,18,25.40
2015,07,19,10,19,25.40
2015,07,19,10,20,25.50
2015,07,19,10,21,25.50
2015,07,19,10,22,25.40
2015,07,19,10,23,25.40
2015,07,19,10,24,25.40
2015,07,19,10,25,25.40
2015,07,19,10,26,25.40
2015,07,19,10,27,25.40
2015,07,19,10,28,25.40
2015,07,19,10,29,25.40
2015,07,19,10,30,25.50
2015,07,19,10,31,25.50
2015,07,19,10,32,25.60
2015,07,19,10,33,25.70
2015,07,19,10,34,25.80
2015,07,19,10,35,25.80
2015,07,19,10,36,25.90
2015,07,19,10,37,25.90
2015,07,19,10,38,25.90
2015,07,19,10,39,25.90
2015,07,19,10,40,25.90
2015,07,19,10,41,25.90
2015,07,19,10,42,25.90
2015,07,19,10,43,25.90
2015,07,19,10,44,25.90
2015,07,19,10,45,25.80
2015,07,19,10,46,25.70
2015,07,19,10,47,25.60
2015,07,19,10,48,25.50
2015,07,19,10,49,25.40
2015,07,19,10,50,25.40
2015,07,19,10,51,25.50
2015,07,19,10,52,25.50
2015,07,19,10,53,25.50
2015,07,19,10,54,25.50
2015,07,19,10,55,25.40
2015,07,19,10,56,25.40
2015,07,19,10,57,25.50
2015,07,19,10,58,25.60
2015,07,19,10,59,25.60
2015,07,19,11,00,25.50
2015,07,19,11,01,25.40
2015,07,19,11,02,25.40
2015,07,19,11,03,25.40
2015,07,19,11,04,25.40
2015,07,19,11,05,25.40
2015,07,19,11,06,25.40
2015,07,19,11,07,25.40
2015,07,19,11,08,25.40
2015,07,19,11,09,25.30
2015,07,19,11,10,25.40
2015,07,19,11,11,25.40
2015,07,19,11,12,25.50
2015,07,19,11,13,25.50
2015,07,19,11,14,25.50
2015,07,19,11,15,25.60
2015,07,19,11,16,25.60
2015,07,19,11,17,25.60
2015,07,19,11,18,25.60
2015,07,19,11,19,25.60
2015,07,19,11,20,25.70
2015,07,19,11,21,25.70
2015,07,19,11,22,25.70
2015,07,19,11,23,25.80
2015,07,19,11,24,25.80
2015,07,19,11,25,25.90
2015,07,19,11,26,25.90
2015,07,19,11,27,26.00
2015,07,19,11,28,26.10
2015,07,19,11,29,26.10
2015,07,19,11,30,26.10
2015,07,19,11,31,26.10
2015,07,19,11,32,26.10
2015,07,19,11,33,26.20
2015,07,19,11,34,26.30
2015,07,19,11,35,26.40
2015,07,19,11,36,26.50
2015,07,19,11,37,26.60
2015,07,19,11,38,26.60
2015,07,19,11,39,26.60
2015,07,19,11,40,26.60
2015,07,19,11,41,26.60
2015,07,19,11,42,26.70
2015,07,19,11,43,26.80
2015,07,19,11,44,26.90
2015,07,19,11,45,26.90
2015,07,19,11,46,26.90
2015,07,19,11,47,27.10
2015,07,19,11,48,27.10
2015,07,19,11,49,27.10
2015,07,19,11,50,27.10
2015,07,19,11,51,27.10
2015,07,19,11,52,27.10
2015,07,19,11,53,27.20
2015,07,19,11,54,27.20
2015,07,19,11,55,27.20
2015,07,19,11,56,27.20
2015,07,19,11,57,27.20
2015,07,19,11,58,27.20
2015,07,19,11,59,27.20
2015,07,19,12,00,27.30
2015,07,19,12,01,27.20
2015,07,19,12,02,27.20
2015,07,19,12,03,27.20
2015,07,19,12,04,27.20
2015,07,19,12,05,27.30
2015,07,19,12,06,27.30
2015,07,19,12,07,27.30
2015,07,19,12,08,27.30
2015,07,19,12,09,27.30
2015,07,19,12,10,27.20
2015,07,19,12,11,27.00
2015,07,19,12,12,26.90
2015,07,19,12,13,26.80
2015,07,19,12,14,26.80
2015,07,19,12,15,26.80
2015,07,19,12,16,26.90
2015,07,19,12,17,27.00
2015,07,19,12,18,27.10
2015,07,19,12,19,27.20
2015,07,19,12,20,27.20
2015,07,19,12,21,27.20
2015,07,19,12,22,27.10
2015,07,19,12,23,27.00
2015,07,19,12,24,26.90
2015,07,19,12,25,26.90
2015,07,19,12,26,27.00
2015,07,19,12,27,27.10
2015,07,19,12,28,27.10
2015,07,19,12,29,27.10
2015,07,19,12,30,27.10
2015,07,19,12,31,27.10
2015,07,19,12,32,27.00
2015,07,19,12,33,26.90
2015,07,19,12,34,26.90
2015,07,19,12,35,26.90
2015,07,19,12,36,26.80
2015,07,19,12,37,26.80
2015,07,19,12,38,26.80
2015,07,19,12,39,26.80
2015,07,19,12,40,26.80
2015,07,19,12,41,26.80
2015,07,19,12,42,26.80
2015,07,19,12,43,26.80
2015,07,19,12,44,26.90
2015,07,19,12,45,27.00
2015,07,19,12,46,27.10
2015,07,19,12,47,27.20
2015,07,19,12,48,27.10
2015,07,19,12,49,27.10
2015,07,19,12,50,27.20
2015,07,19,12,51,27.20
2015,07,19,12,52,27.20
2015,07,19,12,53,27.30
2015,07,19,12,54,27.40
2015,07,19,12,55,27.50
2015,07,19,12,56,27.60
2015,07,19,12,57,27.60
2015,07,19,12,58,27.60
2015,07,19,12,59,27.60
2015,07,19,13,00,27.60
2015,07,19,13,01,27.60
2015,07,19,13,02,27.70
2015,07,19,13,03,27.70
2015,07,19,13,04,27.70
2015,07,19,13,05,27.70
2015,07,19,13,06,27.70
2015,07,19,13,07,27.70
2015,07,19,13,08,27.80
2015,07,19,13,09,27.80
2015,07,19,13,10,27.90
2015,07,19,13,11,27.90
2015,07,19,13,12,28.00
2015,07,19,13,13,28.10
2015,07,19,13,14,28.20
2015,07,19,13,15,28.30
2015,07,19,13,16,28.30
2015,07,19,13,17,28.30
2015,07,19,13,18,28.30
2015,07,19,13,19,28.20
2015,07,19,13,20,28.30
2015,07,19,13,21,28.40
2015,07,19,13,22,28.40
2015,07,19,13,23,28.40
2015,07,19,13,24,28.40
2015,07,19,13,25,28.40
2015,07,19,13,26,28.40
2015,07,19,13,27,28.30
2015,07,19,13,28,28.30
2015,07,19,13,29,28.40
2015,07,19,13,30,28.40
2015,07,19,13,31,28.50
2015,07,19,13,32,28.60
2015,07,19,13,33,28.60
2015,07,19,13,34,28.60
2015,07,19,13,35,28.70
2015,07,19,13,36,28.70
2015,07,19,13,37,28.70
2015,07,19,13,38,28.70
2015,07,19,13,39,28.80
2015,07,19,13,40,28.80
2015,07,19,13,41,28.80
2015,07,19,13,42,28.80
2015,07,19,13,43,28.80
2015,07,19,13,44,28.80
2015,07,19,13,45,28.80
2015,07,19,13,46,28.80
2015,07,19,13,47,28.80
2015,07,19,13,48,28.80
2015,07,19,13,49,28.80
2015,07,19,13,50,28.90
2015,07,19,13,51,28.90
2015,07,19,13,52,29.00
2015,07,19,13,53,29.10
2015,07,19,13,54,29.20
2015,07,19,13,55,29.30
2015,07,19,13,56,29.40
2015,07,19,13,57,29.40
2015,07,19,13,58,29.40
2015,07,19,13,59,29.40
2015,07,19,14,00,29.30
2015,07,19,14,01,29.30
2015,07,19,14,02,29.20
2015,07,19,14,03,29.30
2015,07,19,14,04,29.20
2015,07,19,14,05,29.20
2015,07,19,14,06,29.10
2015,07,19,14,07,29.20
2015,07,19,14,08,29.30
2015,07,19,14,09,29.40
2015,07,19,14,10,29.40
2015,07,19,14,11,29.40
2015,07,19,14,12,29.40
2015,07,19,14,13,29.40
2015,07,19,14,14,29.30
2015,07,19,14,15,29.40
2015,07,19,14,16,29.40
2015,07,19,14,17,29.40
2015,07,19,14,18,29.40
2015,07,19,14,19,29.40
2015,07,19,14,20,29.40
2015,07,19,14,21,29.40
2015,07,19,14,22,29.50
2015,07,19,14,23,29.50
2015,07,19,14,24,29.50
2015,07,19,14,25,29.40
2015,07,19,14,26,29.30
2015,07,19,14,27,29.30
2015,07,19,14,28,29.20
2015,07,19,14,29,29.20
2015,07,19,14,30,29.20
2015,07,19,14,31,29.30
2015,07,19,14,32,29.40
2015,07,19,14,33,29.40
2015,07,19,14,34,29.40
2015,07,19,14,35,29.40
2015,07,19,14,36,29.40
2015,07,19,14,37,29.40
2015,07,19,14,38,29.40
2015,07,19,14,39,29.50
2015,07,19,14,40,29.60
2015,07,19,14,41,29.70
2015,07,19,14,42,29.80
2015,07,19,14,43,29.80
2015,07,19,14,44,29.80
2015,07,19,14,45,29.80
2015,07,19,14,46,29.80
2015,07,19,14,47,29.80
2015,07,19,14,48,30.00
2015,07,19,14,49,30.10
2015,07,19,14,50,30.10
2015,07,19,14,51,30.10
2015,07,19,14,52,30.20
2015,07,19,14,53,30.30
2015,07,19,14,54,30.40
2015,07,19,14,55,30.40
2015,07,19,14,56,30.40
2015,07,19,14,57,30.50
2015,07,19,14,58,30.60
2015,07,19,14,59,30.60
2015,07,19,15,00,30.60
2015,07,19,15,01,30.60
2015,07,19,15,02,30.60
2015,07,19,15,03,30.40
2015,07,19,15,04,30.40
2015,07,19,15,05,30.40
2015,07,19,15,06,30.40
2015,07,19,15,07,30.50
2015,07,19,15,08,30.60
2015,07,19,15,09,30.60
2015,07,19,15,10,30.40
2015,07,19,15,11,30.40
2015,07,19,15,12,30.40
2015,07,19,15,13,30.40
2015,07,19,15,14,30.40
2015,07,19,15,15,30.30
2015,07,19,15,16,30.30
2015,07,19,15,17,30.30
2015,07,19,15,18,30.30
2015,07,19,15,19,30.30
2015,07,19,15,20,30.30
2015,07,19,15,21,30.30
2015,07,19,15,22,30.20
2015,07,19,15,23,30.10
2015,07,19,15,24,30.10
2015,07,19,15,25,30.10
2015,07,19,15,26,30.20
2015,07,19,15,27,30.20
2015,07,19,15,28,30.20
2015,07,19,15,29,30.30
2015,07,19,15,30,30.30
2015,07,19,15,31,30.30
2015,07,19,15,32,30.40
2015,07,19,15,33,30.40
2015,07,19,15,34,30.50
2015,07,19,15,35,30.40
2015,07,19,15,36,30.60
2015,07,19,15,37,30.60
2015,07,19,15,38,30.60
2015,07,19,15,39,30.40
2015,07,19,15,40,30.20
2015,07,19,15,41,30.10
2015,07,19,15,42,30.10
2015,07,19,15,43,30.10
2015,07,19,15,44,30.20
2015,07,19,15,45,30.10
2015,07,19,15,46,30.00
2015,07,19,15,47,29.90
2015,07,19,15,48,29.90
2015,07,19,15,49,29.80
2015,07,19,15,50,29.70
2015,07,19,15,51,29.70
2015,07,19,15,52,29.80
2015,07,19,15,53,29.90
2015,07,19,15,54,29.90
2015,07,19,15,55,30.00
2015,07,19,15,56,30.10
2015,07,19,15,57,30.10
2015,07,19,15,58,30.00
2015,07,19,15,59,30.00
2015,07,19,16,00,30.10
2015,07,19,16,01,30.10
2015,07,19,16,02,30.10
2015,07,19,16,03,30.10
2015,07,19,16,04,30.10
2015,07,19,16,05,30.20
2015,07,19,16,06,30.30
2015,07,19,16,07,30.30
2015,07,19,16,08,30.20
2015,07,19,16,09,30.10
2015,07,19,16,10,30.10
2015,07,19,16,11,30.10
2015,07,19,16,12,30.10
2015,07,19,16,13,30.10
2015,07,19,16,14,30.20
2015,07,19,16,15,30.20
2015,07,19,16,16,30.20
2015,07,19,16,17,30.20
2015,07,19,16,18,30.10
2015,07,19,16,19,30.00
2015,07,19,16,20,30.00
2015,07,19,16,21,30.10
2015,07,19,16,22,30.10
2015,07,19,16,23,30.10
2015,07,19,16,24,30.20
2015,07,19,16,25,30.20
2015,07,19,16,26,30.30
2015,07,19,16,27,30.30
2015,07,19,16,28,30.30
2015,07,19,16,29,30.30
2015,07,19,16,30,30.30
2015,07,19,16,31,30.30
2015,07,19,16,32,30.30
2015,07,19,16,33,30.40
2015,07,19,16,34,30.50
2015,07,19,16,35,30.60
2015,07,19,16,36,30.70
2015,07,19,16,37,30.70
2015,07,19,16,38,30.70
2015,07,19,16,39,30.70
2015,07,19,16,40,30.60
2015,07,19,16,41,30.40
2015,07,19,16,42,30.30
2015,07,19,16,43,30.20
2015,07,19,16,44,30.10
2015,07,19,16,45,30.10
2015,07,19,16,46,30.10
2015,07,19,16,47,30.10
2015,07,19,16,48,30.10
2015,07,19,16,49,30.00
2015,07,19,16,50,29.90
2015,07,19,16,51,29.80
2015,07,19,16,52,29.70
2015,07,19,16,53,29.70
2015,07,19,16,54,29.60
2015,07,19,16,55,29.60
2015,07,19,16,56,29.70
2015,07,19,16,57,29.70
2015,07,19,16,58,29.70
2015,07,19,16,59,29.70
2015,07,19,17,00,29.70
2015,07,19,17,01,29.60
2015,07,19,17,02,29.60
2015,07,19,17,03,29.60
2015,07,19,17,04,29.50
2015,07,19,17,05,29.40
2015,07,19,17,06,29.40
2015,07,19,17,07,29.40
2015,07,19,17,08,29.40
2015,07,19,17,09,29.50
2015,07,19,17,10,29.50
2015,07,19,17,11,29.50
2015,07,19,17,12,29.50
2015,07,19,17,13,29.50
2015,07,19,17,14,29.40
2015,07,19,17,15,29.40
2015,07,19,17,16,29.30
2015,07,19,17,17,29.20
2015,07,19,17,18,29.10
2015,07,19,17,19,29.00